Regional Weather Roundup
Issued by NWS Kansas City/Pleasant Hill, MO

Home | Current Version | Previous Version | Graphics & Text | Print | Product List | Glossary Off
Versions: 1 2 3 4 5 6 7 8 9 10 11 12 13 14 15 16 17 18 19 20 21 22 23 24 25 26 27 28 29 30 31 32 33 34 35 36 37 38 39 40 41 42 43 44 45 46 47 48 49 50

000
ASUS43 KEAX 230310
RWREAX

WEATHER ROUNDUP FOR EASTERN KANSAS AND NORTHWEST MISSOURI
NATIONAL WEATHER SERVICE KANSAS CITY/PLEASANT HILL MO
900 PM CST MON JAN 22 2018

KSZ040-057-103>105-MOZ028-029-037-043-230400-
...KANSAS CITY METROPOLITAN AREA...

CITY           SKY/WX    TMP DP  RH WIND       PRES   REMARKS
K.C. INTL      CLOUDY    32  28  85 NW22G33   29.71R WCI  19
K.C. DOWNTOWN  LGT SNOW  34  29  82 NW16G26   29.72R WCI  24
LEES SUMMIT    LGT SNOW  32  30  92 NW17G25   29.71R FOG     WCI  21
OLATHE - IXD   CLOUDY    31  28  89 NW22G33   29.76R WCI  18
OLATHE - OJC   CLOUDY    31  27  85 NW20G32   29.73R WCI  19
LAWRENCE       LGT SNOW  32  29  88 W21G29    29.79R FOG     WCI  20

$$

MOZ001>008-011>017-020>025-030>033-038>040-044>046-053-054-230400-
...NORTHERN AND CENTRAL MISSOURI...

CITY           SKY/WX    TMP DP  RH WIND       PRES   REMARKS
ST. JOSEPH     LGT SNOW  32  30  92 NW28G36   29.72R FOG     WCI  18
MOSBY          CLOUDY    34  30  86 NW16G28   29.69R WCI  23
WARRENSBURG    CLOUDY    34  30  86 W14G23    29.67R WCI  24
WHITEMAN AFB   LGT RAIN  33  30  87 W14       29.62R WCI  23
CLINTON        LGT RAIN  32  30  93 W17G23    29.72R WCI  21
SEDALIA        LGT SNOW  34  32  92 W16G28    29.64R FOG     WCI  24
WARSAW         NOT AVBL
CHILLICOTHE      N/A     36  33  89 NW12G22   29.58R WCI  28
KIRKSVILLE     CLOUDY    34  34 100 W7        29.53R FOG     WCI  28

$$

MOZ041-047>049-056>058-063>065-088>090-097-230400-
...EASTERN AND SOUTHERN MISSOURI...

CITY           SKY/WX    TMP DP  RH WIND       PRES   REMARKS
ST. LOUIS INTL CLOUDY    42  30  62 W21G28    29.60R WCI  33
SPIRIT OF STL  LGT RAIN  42  33  70 W15G31    29.59S WCI  34
COLUMBIA       CLOUDY    34  29  82 SW18G26   29.60R WCI  23
JEFFERSON CITY CLOUDY    36  27  69 W14G33    29.64R WCI  27
ROLLA          CLOUDY    34  27  75 W22G39    29.64S WCI  22
OSAGE BEACH    CLOUDY    34  27  75 W20G30    29.67R WCI  23
SPRINGFIELD    CLOUDY    35  28  75 W17G39    29.76R WCI  25
BRANSON        CLOUDY    39  25  56 W15G28    29.80R WCI  31
JOPLIN         CLOUDY    36  29  75 W26G43    29.85R WCI  24
WEST PLAINS    CLOUDY    39  27  62 W18G38    29.73R WCI  30

$$

IAZ060-094-KSZ022-034>040-054-083-096-NEZ052-066-093-230400-
...KANSAS...SOUTHEAST NEBRASKA AND IOWA...

CITY           SKY/WX    TMP DP  RH WIND       PRES   REMARKS
TOPEKA         LGT SNOW  31  28  89 NW21G28   29.82R FOG     WCI  18
MANHATTAN      MOCLDY    33  26  75 NW8       29.90R WCI  26
EMPORIA        CLOUDY    33  25  72 NW24G37   29.87R WCI  20
WICHITA        PTCLDY    37  24  59 NW23G35   29.96R WCI  26
OMAHA          LGT SNOW  30  27  88 NW26G37   29.81R BLWGSNOWWCI  16
LINCOLN        CLOUDY    26  22  84 NW22G36   29.88R WCI  12
FALLS CITY     FLURRIES  29  25  85 NW25G36   29.77R WCI  14
LAMONI         CLOUDY    33  29  85 NW21G35   29.58R WCI  21
DES MOINES     FLURRIES  33  31  92 N17G32    29.58R WCI  22

$$




USA.gov is the U.S. government's official web portal to all federal, state and local government web resources and services.